Leesburg, VA

8:31 AM EDT on June 22, 2017 (GMT -0400)
Leesburg Executive

Weather History for KJYO - March, 2014

Change the Weather History Date:

Saturday, March 1, 2014

  Actual Average (KIAD) Record (KIAD)
Temperature  
Mean Temperature 28 °F -  
Max Temperature 42 °F 51 °F 77 °F (1972)
Min Temperature 14 °F 26 °F 11 °F (1980)
Degree Days  
Heating Degree Days 37    
Moisture  
Dew Point 17 °F    
Average Humidity 59    
Maximum Humidity 93    
Minimum Humidity 39    
Precipitation  
Precipitation 0.00 in - - ()
Sea Level Pressure  
Sea Level Pressure 30.29 in    
Wind  
Wind Speed 4 mph (South)    
Max Wind Speed 15 mph    
Max Gust Speed 22 mph    
Visibility 10 miles    
Events      
Averages and records for this station are not official NWS values.
T = Trace of Precipitation, MM = Missing Value Source: NWS Daily Summary

Daily Weather History Graph

Daily Weather History Graph

Search for Another Location

Airport or City:

Trip Planner

Search our weather history database for the weather conditions in past years. The results will help you decide how hot, cold, wet, or windy it might be!

Date:

Astronomy

Mar. 01, 2014 Rise Set
Actual Time 6:42 AM EST 6:02 PM EST
Civil Twilight 6:16 AM EST 6:29 PM EST
Nautical Twilight 5:45 AM EST 7:00 PM EST
Astronomical Twilight 5:14 AM EST 7:31 PM EST
Moon 6:35 AM EST (3/1) 6:47 PM EST (3/1)
Length of Visible Light 12h 13m
Length of Day
11h 20m
New Moon, 0% of the Moon is Illuminated
Mar 1
New Moon
Mar 8
First Quarter
Mar 16
Full
Mar 23
Last Quarter
Mar 30
New

Hourly Weather History & Observations

Time (EST) Temp. Windchill Dew Point Humidity Pressure Visibility Wind Dir Wind Speed Gust Speed Precip Events Conditions
12:15 AM 23.0 °F 17.0 °F 6.8 °F 50% 30.38 in 10.0 mi SSE 4.6 mph - N/A   Clear
12:35 AM 21.2 °F - 6.8 °F 54% 30.38 in 10.0 mi Calm Calm - N/A   Clear
12:55 AM 19.4 °F - 6.8 °F 58% 30.38 in 10.0 mi Calm Calm - N/A   Clear
1:15 AM 19.4 °F - 8.6 °F 63% 30.38 in 10.0 mi Calm Calm - N/A   Clear
1:35 AM 19.4 °F - 8.6 °F 63% 30.38 in 10.0 mi Calm Calm - N/A   Clear
1:55 AM 19.4 °F - 8.6 °F 63% 30.37 in 10.0 mi Calm Calm - N/A   Clear
2:15 AM 19.4 °F 12.8 °F 8.6 °F 63% 30.36 in 10.0 mi SSW 4.6 mph - N/A   Clear
2:35 AM 19.4 °F 7.9 °F 10.4 °F 68% 30.36 in 10.0 mi SSW 10.4 mph - N/A   Clear
2:55 AM 17.6 °F 8.2 °F 8.6 °F 68% 30.36 in 10.0 mi SSW 6.9 mph - N/A   Clear
3:15 AM 17.6 °F - 10.4 °F 73% 30.36 in 10.0 mi Calm Calm - N/A   Clear
3:35 AM 17.6 °F - 10.4 °F 73% 30.35 in 10.0 mi Calm Calm - N/A   Clear
3:55 AM 17.6 °F - 12.2 °F 79% 30.35 in 10.0 mi Calm Calm - N/A   Clear
4:15 AM 17.6 °F - 10.4 °F 73% 30.35 in 10.0 mi Calm Calm - N/A   Clear
4:35 AM 17.6 °F 10.7 °F 10.4 °F 73% 30.35 in 10.0 mi ESE 4.6 mph - N/A   Clear
4:50 AM 17.6 °F - 10.4 °F 73% 30.35 in 10.0 mi Calm Calm - N/A   Clear
5:15 AM 17.6 °F 10.7 °F 10.4 °F 73% 30.34 in 10.0 mi ESE 4.6 mph - N/A   Clear
5:35 AM 14.0 °F - 12.2 °F 93% 30.34 in 10.0 mi North - - N/A   Clear
5:55 AM 14.0 °F - 12.2 °F 93% 30.35 in 10.0 mi Calm Calm - N/A   Clear
6:15 AM 17.6 °F 12.3 °F 12.2 °F 79% 30.35 in 10.0 mi NNW 3.5 mph - N/A   Clear
6:35 AM 17.6 °F - 12.2 °F 79% 30.35 in 10.0 mi Calm Calm - N/A   Clear
6:55 AM 17.6 °F - 12.2 °F 79% 30.36 in 10.0 mi North - - N/A   Clear
7:15 AM 17.6 °F 10.7 °F 12.2 °F 79% 30.36 in 10.0 mi ESE 4.6 mph - N/A   Clear
7:35 AM 19.4 °F - 14.0 °F 80% 30.36 in 10.0 mi Calm Calm - N/A   Clear
7:55 AM 21.2 °F 14.9 °F 14.0 °F 74% 30.36 in 10.0 mi ESE 4.6 mph - N/A   Clear
8:15 AM 23.0 °F - 14.0 °F 68% 30.37 in 10.0 mi North - - N/A   Clear
8:35 AM 26.6 °F 21.2 °F 14.0 °F 59% 30.38 in 10.0 mi South 4.6 mph - N/A   Clear
8:55 AM 28.4 °F 21.2 °F 14.0 °F 55% 30.37 in 10.0 mi South 6.9 mph - N/A   Clear
9:15 AM 28.4 °F 19.1 °F 15.8 °F 59% 30.37 in 10.0 mi South 10.4 mph 20.7 mph N/A   Clear
9:35 AM 30.2 °F 19.3 °F 17.6 °F 60% 30.37 in 10.0 mi SSW 15.0 mph 20.7 mph N/A   Clear
9:55 AM 32.0 °F 22.1 °F 17.6 °F 55% 30.36 in 10.0 mi SSW 13.8 mph 21.9 mph N/A   Clear
10:15 AM 32.0 °F 24.2 °F 17.6 °F 55% 30.35 in 10.0 mi South 9.2 mph 21.9 mph N/A   Clear
10:35 AM 32.0 °F 23.6 °F 17.6 °F 55% 30.35 in 10.0 mi South 10.4 mph 18.4 mph N/A   Clear
10:55 AM 33.8 °F 25.8 °F 17.6 °F 52% 30.34 in 10.0 mi South 10.4 mph 17.3 mph N/A   Clear
11:15 AM 33.8 °F 26.4 °F 17.6 °F 52% 30.33 in 10.0 mi South 9.2 mph 19.6 mph N/A   Mostly Cloudy
11:35 AM 35.6 °F 29.2 °F 17.6 °F 48% 30.33 in 10.0 mi South 8.1 mph 16.1 mph N/A   Overcast
11:55 AM 35.6 °F 29.2 °F 19.4 °F 52% 30.32 in 10.0 mi SSW 8.1 mph 18.4 mph N/A   Overcast
12:15 PM 35.6 °F 27.1 °F 19.4 °F 52% 30.30 in 10.0 mi South 12.7 mph - N/A   Mostly Cloudy
12:35 PM 37.4 °F 30.3 °F 19.4 °F 48% 30.28 in 10.0 mi South 10.4 mph 17.3 mph N/A   Scattered Clouds
12:55 PM 37.4 °F 30.8 °F 19.4 °F 48% 30.27 in 10.0 mi SSW 9.2 mph - N/A   Mostly Cloudy
1:15 PM 41.0 °F 34.7 °F 19.4 °F 42% 30.26 in 10.0 mi SSW 10.4 mph - N/A   Mostly Cloudy
1:35 PM 41.0 °F 34.3 °F 19.4 °F 42% 30.24 in 10.0 mi South 11.5 mph - N/A   Scattered Clouds
1:55 PM 42.8 °F 36.6 °F 19.4 °F 39% 30.23 in 10.0 mi South 11.5 mph - N/A   Scattered Clouds
2:15 PM 42.8 °F 37.0 °F 19.4 °F 39% 30.22 in 10.0 mi SSE 10.4 mph 17.3 mph N/A   Mostly Cloudy
2:35 PM 42.8 °F 36.2 °F 19.4 °F 39% 30.23 in 10.0 mi SSW 12.7 mph 18.4 mph N/A   Overcast
2:55 PM 42.8 °F - 19.4 °F 39% 30.22 in 10.0 mi North - - N/A   Overcast
3:15 PM 42.8 °F - 21.2 °F 42% 30.21 in 10.0 mi North - - N/A   Overcast
3:35 PM 42.8 °F - 21.2 °F 42% 30.21 in 10.0 mi North - - N/A   Overcast
3:55 PM 42.8 °F 37.5 °F 21.2 °F 42% 30.21 in 10.0 mi SSW 9.2 mph - N/A   Overcast
4:15 PM 42.8 °F 41.1 °F 21.2 °F 42% 30.20 in 10.0 mi SSW 3.5 mph - N/A   Overcast
4:35 PM 42.8 °F 39.3 °F 21.2 °F 42% 30.20 in 10.0 mi South 5.8 mph - N/A   Overcast
4:55 PM 42.8 °F 40.1 °F 21.2 °F 42% 30.19 in 10.0 mi South 4.6 mph - N/A   Overcast
5:15 PM 42.8 °F 41.1 °F 21.2 °F 42% 30.19 in 10.0 mi South 3.5 mph - N/A   Overcast
5:35 PM 42.8 °F - 21.2 °F 42% 30.20 in 10.0 mi Calm Calm - N/A   Overcast
5:55 PM 42.8 °F 40.1 °F 21.2 °F 42% 30.19 in 10.0 mi SSE 4.6 mph - N/A   Mostly Cloudy
6:15 PM 41.0 °F - 21.2 °F 45% 30.20 in 10.0 mi North - - N/A   Mostly Cloudy
6:35 PM 39.2 °F - 21.2 °F 49% 30.21 in 10.0 mi North - - N/A   Scattered Clouds
6:55 PM 39.2 °F 35.9 °F 21.2 °F 49% 30.21 in 10.0 mi ESE 4.6 mph - N/A   Mostly Cloudy
7:15 PM 37.4 °F - 23.0 °F 56% 30.22 in 10.0 mi Calm Calm - N/A   Overcast
7:35 PM 37.4 °F - 23.0 °F 56% 30.23 in 10.0 mi Calm Calm - N/A   Overcast
7:55 PM 39.2 °F - 23.0 °F 52% 30.23 in 10.0 mi North - - N/A   Overcast
8:15 PM 39.2 °F - 23.0 °F 52% 30.21 in 10.0 mi North - - N/A   Overcast
8:35 PM 37.4 °F - 23.0 °F 56% 30.20 in 10.0 mi North - - N/A   Overcast
8:55 PM 37.4 °F - 24.8 °F 60% 30.20 in 10.0 mi North - - N/A   Overcast
9:15 PM 35.6 °F - 24.8 °F 65% 30.19 in 10.0 mi North - - N/A   Overcast
9:35 PM 33.8 °F - 23.0 °F 65% 30.19 in 10.0 mi North - - N/A   Mostly Cloudy
9:55 PM 33.8 °F - 24.8 °F 70% 30.19 in 10.0 mi North - - N/A   Overcast
10:15 PM 33.8 °F - 24.8 °F 70% 30.19 in 10.0 mi North - - N/A   Overcast
10:30 PM 35.6 °F 32.8 °F 24.8 °F 65% 30.19 in 10.0 mi SSW 3.5 mph - N/A   Overcast
10:55 PM 33.8 °F - 26.6 °F 75% 30.20 in 10.0 mi North - - N/A   Overcast
11:15 PM 35.6 °F - 28.4 °F 75% 30.19 in 10.0 mi Calm Calm - N/A   Overcast
11:35 PM 35.6 °F - 26.6 °F 70% 30.18 in 10.0 mi North - - N/A   Overcast
11:55 PM 35.6 °F - 26.6 °F 70% 30.18 in 10.0 mi North - - N/A   Overcast